Medicine Lodge, KS

4:35 AM CDT on April 24, 2018 (GMT -0500)
Medicine Lodge

Weather History for KP28 - October, 2011

Change the Weather History Date:

Monday, October 24, 2011

  Actual Average Record
Temperature  
Mean Temperature 66 °F 56 °F  
Max Temperature 87 °F 68 °F 95 °F (1939)
Min Temperature 44 °F 43 °F 23 °F (1938)
Degree Days  
Heating Degree Days 0 10  
Month to date heating degree days 157  
Since 1 July heating degree days 191  
Cooling Degree Days 0 0  
Month to date cooling degree days 37  
Year to date cooling degree days 1768  
Growing Degree Days 16 (Base 50)    
Moisture  
Dew Point 40 °F    
Average Humidity 44    
Maximum Humidity 76    
Minimum Humidity 16    
Precipitation  
Precipitation 0.00 in 0.08 in 0.43 in (1949)
Month to date precipitation 2.29  
Year to date precipitation 24.74  
Snow  
Snow 0.00 in 0.00 in - ()
Month to date snowfall 0.0  
Since 1 July snowfall 0.0  
Since 1 September snowfall 0.0  
Snow Depth -    
Sea Level Pressure  
Sea Level Pressure 30.01 in    
Wind  
Wind Speed 7 mph (South)    
Max Wind Speed 25 mph    
Max Gust Speed 33 mph    
T = Trace of Precipitation, MM = Missing Value Source: NWS Daily Summary

Daily Weather History Graph

Daily Weather History Graph

Search for Another Location

Airport or City:

Astronomy

Oct. 24, 2011 Rise Set
Actual Time 7:50 AM CDT 6:45 PM CDT
Civil Twilight 7:24 AM CDT 7:12 PM CDT
Nautical Twilight 6:53 AM CDT 7:42 PM CDT
Astronomical Twilight 6:23 AM CDT 8:13 PM CDT
Moon 5:13 AM CDT 5:09 PM CDT
Length of Visible Light 11h 48m
Length of Day
10h 55m
Waning Crescent, 7% of the Moon is Illuminated
Oct 24
Waning Crescent
Oct 26
New
Nov 2
First Quarter
Nov 10
Full
Nov 18
Last Quarter

Hourly Weather History & Observations

Time (CDT) Temp. Windchill Dew Point Humidity Pressure Visibility Wind Dir Wind Speed Gust Speed Precip Events Conditions
12:56 AM 57.9 °F - 36.0 °F 44% 30.06 in - Calm Calm - N/A   Unknown
1:56 AM 55.9 °F - 36.0 °F 47% 30.07 in - South 4.6 mph - N/A   Unknown
2:56 AM 51.1 °F - 36.0 °F 56% 30.07 in - North 4.6 mph - N/A   Unknown
3:56 AM 48.9 °F - 37.0 °F 64% 30.07 in - NE 5.8 mph - N/A   Unknown
4:56 AM 48.9 °F - 37.0 °F 64% 30.08 in - Calm Calm - N/A   Unknown
5:56 AM 46.0 °F 44.8 °F 37.0 °F 71% 30.08 in - North 3.5 mph - N/A   Unknown
6:56 AM 45.0 °F - 37.0 °F 74% 30.10 in - Calm Calm - N/A   Unknown
7:56 AM 44.1 °F - 37.0 °F 76% 30.10 in - Calm Calm - N/A   Unknown
8:56 AM 46.9 °F - 39.0 °F 74% 30.12 in - Calm Calm - N/A   Unknown
9:56 AM 61.0 °F - 39.0 °F 44% 30.11 in - South 4.6 mph - N/A   Unknown
10:56 AM 68.0 °F - 42.1 °F 39% 30.10 in - South 9.2 mph - N/A   Unknown
11:56 AM 75.0 °F - 45.0 °F 34% 30.07 in - South 10.4 mph - N/A   Unknown
1:56 PM 82.0 °F - 41.0 °F 23% 29.99 in - South 15.0 mph - N/A   Unknown
2:56 PM 86.0 °F - 36.0 °F 17% 29.94 in - South 20.7 mph 27.6 mph N/A   Unknown
3:56 PM 87.1 °F - 36.0 °F 16% 29.92 in - SSW 25.3 mph 33.4 mph N/A   Unknown
4:56 PM 86.0 °F - 36.0 °F 17% 29.90 in - South 25.3 mph 32.2 mph N/A   Unknown
5:56 PM 82.9 °F - 37.9 °F 20% 29.90 in - South 19.6 mph 28.8 mph N/A   Unknown
6:56 PM 77.0 °F - 41.0 °F 28% 29.92 in - South 13.8 mph - N/A   Unknown
7:56 PM 75.0 °F - 41.0 °F 29% 29.92 in - South 18.4 mph 27.6 mph N/A   Unknown
8:56 PM 72.0 °F - 45.0 °F 38% 29.92 in - South 13.8 mph 25.3 mph N/A   Unknown
9:56 PM 70.0 °F - 46.9 °F 44% 29.91 in - South 17.3 mph 24.2 mph N/A   Unknown
10:56 PM 69.1 °F - 46.0 °F 44% 29.90 in - South 16.1 mph 25.3 mph N/A   Unknown
11:56 PM 66.9 °F - 44.1 °F 44% 29.88 in - South 13.8 mph - N/A   Unknown